Location: Newark
(46.7333°N, 6.6667°E)
Time: 19:31:05
(UTC+00:00)

N. Korean satellite - Pass Details

Date: 30 September 2020
Orbit: 452 x 505 km, 97.2° (Epoch: 28 October)

Event Time Altitude Azimuth Distance (km) Brightness Sun altitude
Rises 04:40:47 0° 20° (NNE) 2,582 10.6 -9.4°
Reaches altitude 10° 04:43:01 10° 29° (NNE) 1,686 9.8 -9.1°
Maximum altitude 04:46:22 35° 97° (E) 796 8.5 -8.5°
Drops below altitude 10° 04:49:39 10° 165° (SSE) 1,643 9.4 -7.9°
Sets 04:51:47 0° 174° (S) 2,505 10.2 -7.6°
